This is the latest recevied weather packets stored in our database for station/object K7CTM. If no packets are shown the sender has not sent any weather packets the latest 10 day(s).
| Time | Temp. | Humidity | Pressure | Rain* | Wind** | Luminosity | Snow |
|---|---|---|---|---|---|---|---|
| 1777656030 | 17.22° C | 26% | 1029.8 hPa | 0 mm | - | 753 W/m² | - |
| 1777655726 | 16.67° C | 27% | 1029.9 hPa | 0 mm | - | 746 W/m² | - |
| 1777655423 | 16.67° C | 29% | 1029.8 hPa | 0 mm | - | 738 W/m² | - |
| 1777655120 | 16.67° C | 28% | 1029.7 hPa | 0 mm | - | 729 W/m² | - |
| 1777654817 | 17.22° C | 27% | 1029.9 hPa | 0 mm | - | 720 W/m² | - |
| 1777654515 | 16.67° C | 30% | 1029.8 hPa | 0 mm | - | 710 W/m² | - |
| 1777654212 | 16.67° C | 27% | 1029.9 hPa | 0 mm | - | 688 W/m² | - |
| 1777653910 | 16.67° C | 29% | 1029.9 hPa | 0 mm | - | 688 W/m² | - |
| 1777653606 | 16.67° C | 29% | 1029.9 hPa | 0 mm | - | 683 W/m² | - |
| 1777653302 | 16.11° C | 30% | 1030 hPa | 0 mm | - | 669 W/m² | - |
| 1777652999 | 15.56° C | 32% | 1030.2 hPa | 0 mm | - | 657 W/m² | - |
| 1777652695 | 15.56° C | 31% | 1029.8 hPa | 0 mm | - | 643 W/m² | - |
| 1777652392 | 15.56° C | 34% | 1030.2 hPa | 0 mm | - | 631 W/m² | - |
| 1777652089 | 15° C | 32% | 1029.9 hPa | 0 mm | - | 617 W/m² | - |
| 1777651786 | 14.44° C | 36% | 1030 hPa | 0 mm | - | 600 W/m² | - |
| 1777651483 | 14.44° C | 36% | 1029.8 hPa | 0 mm | - | 590 W/m² | - |
| 1777651180 | 13.89° C | 36% | 1029.9 hPa | 0 mm | - | 576 W/m² | - |
| 1777650877 | 13.33° C | 38% | 1030.3 hPa | 0 mm | - | 550 W/m² | - |
| 1777650574 | 12.78° C | 38% | 1030.2 hPa | 0 mm | - | 550 W/m² | - |
| 1777650271 | 12.78° C | 40% | 1030 hPa | 0 mm | - | 533 W/m² | - |
| 1777649968 | 12.22° C | 41% | 1030.2 hPa | 0 mm | - | 516 W/m² | - |
| 1777649666 | 11.67° C | 41% | 1030.3 hPa | 0 mm | - | 502 W/m² | - |
| 1777649361 | 11.11° C | 43% | 1030.4 hPa | 0 mm | - | 485 W/m² | - |
| 1777649059 | 10.56° C | 46% | 1030.5 hPa | 0 mm | - | 472 W/m² | - |
| 1777648756 | 10.56° C | 45% | 1030.5 hPa | 0 mm | - | 458 W/m² | - |
* Rain latest hour (hover to see other rain measurements)
** Current wind speed in m/s (hover to see current wind gust speed)